User: anonymous   Login
Location: Unspecified
(0.0000°N, 0.0000°E)
Time: 11:04:20
(UTC+00:00)
Language:

QIANFAN-89 - Orbit

View from above orbital plane
View from above orbital plane
View from above satellite
View from above satellite

Ground track
Ground track

The orbit is defined by the following mean orbital elements,

1 63175U          26145.55716325 +.00000000 +00000-0 +17517-4 0 00002
2 63175  88.9691 303.0575 0016917  19.1928 340.9857 13.51012730    01
Epoch (UTC): 25 May 2026 13:22:18
Eccentricity: 0.0016917
inclination: 88.9691°
perigee height: 1056 km
apogee height: 1081 km
right ascension of ascending node: 303.0575°
argument of perigee: 19.1928°
revolutions per day: 13.51012730
mean anomaly at epoch: 340.9857°

The dashed part of the orbit path shows where the satellite is in the earth's shadow,  

DLR